Location: Gombori
(14.9797°N, 2.9419°W)
Time: 04:04:10
(UTC+00:00)

Meteor 2-13 Rocket - Visible Passes

Search period start: 30 November 2021 00:00
Search period end: 10 December 2021 00:00
Orbit: 935 x 958 km, 82.5° (Epoch: 29 November)

Date Brightness Start Highest point End Pass type
(mag) Time Alt. Az. Time Alt. Az. Time Alt. Az.
30 Nov 4.4 05:25:40 10° SSW 05:31:45 68° W 05:37:49 10° N visible
30 Nov 7.7 18:21:49 10° WNW 18:23:18 11° W 18:24:46 10° WSW visible
01 Dec 7.0 04:00:15 10° SE 04:04:06 17° E 04:07:57 10° NE visible
01 Dec 4.9 05:42:54 10° SSW 05:48:30 38° W 05:54:07 10° NNW visible
02 Dec 6.1 04:15:25 10° SSE 04:20:44 31° E 04:25:59 10° NNE visible
03 Dec 5.1 04:31:24 10° S 04:37:23 56° E 04:43:19 10° NNE visible
04 Dec 4.3 04:47:57 10° S 04:54:04 84° W 05:00:11 10° N visible
05 Dec 7.1 03:23:40 10° ESE 03:26:30 14° E 03:29:19 10° ENE visible
05 Dec 4.6 05:04:58 10° SSW 05:10:49 47° W 05:16:39 10° NNW visible
06 Dec 6.4 03:38:14 10° SE 03:43:06 25° E 03:47:55 10° NE visible
06 Dec 5.3 05:22:35 10° SW 05:27:37 27° W 05:32:39 10° NNW visible
07 Dec 5.4 03:53:58 10° SSE 03:59:44 44° E 04:05:28 10° NNE visible
07 Dec 5.9 05:41:11 10° WSW 05:44:28 15° W 05:47:43 10° NW visible
08 Dec 4.4 04:10:18 10° S 04:16:25 79° E 04:17:52 54° NNE visible
09 Dec 4.8 04:27:08 10° SSW 04:31:40 47° SW 04:31:40 47° SW visible
